Home   Weather   May Pen   Past weeks

Flag for Jamaica Past Weather in May Pen, Jamaica — Yesterday and Last 2 Weeks

Now
88 °F

Passing clouds.


Feels Like: 100 °F
Forecast: 74 / 92 °F
Wind: 24 mph from Southeast

Location: Kingston / Norman Manley

Current Time: May 26, 2017 at 2:05:26 pm

Latest Report: May 26, 2017 at 1:00 pm


Visibility: 6 mi

Pressure: 29.98 "Hg

Humidity: 70%

Dew Point: 77 °F

Location of May PenLocation

Past Weather in May Pen — Graph

°F

May Pen Temperature Yesterday

Maximum temperature yesterday: 90 °F (at 11:00 am)
Minimum temperature yesterday: 82 °F (at 3:00 am)
Average temperature yesterday: 86 °F

High & Low Weather Summary for the Past Weeks

 TemperatureHumidityPressure
High91 °F (May 12, 1:00 pm)100% (May 16, 7:00 am)30.01 "Hg (May 16, 7:00 am)
Low77 °F (May 14, 2:10 am)49% (May 12, 12:00 pm)29.80 "Hg (May 16, 2:00 am)
Average83 °F74%29.90 "Hg
* Reported May 11 1:00 pm — May 26 1:00 pm, May Pen. Weather by CustomWeather, © 2017

Note: Actual official high and low records may vary slightly from our data, if they occured in-between our weather recording intervals... More about our weather records

Advertising

May Pen Weather History for the Previous 24 Hours

Scroll right to see more
 ConditionsComfort  
Time TempWeatherWind HumidityBarometerVisibility
1:00 pm
Fri, May 26
88 °FPassing clouds.24 mph70%29.98 "Hg6 mi
12:00 pm88 °FPassing clouds.25 mph66%30.01 "Hg6 mi
10:00 am88 °FPassing clouds.17 mph62%30.01 "Hg6 mi
9:00 am84 °FPassing clouds.5 mph66%30.01 "Hg6 mi
8:00 am82 °FPassing clouds.7 mph66%30.01 "HgN/A
7:00 am81 °FPassing clouds.7 mph74%29.98 "HgN/A
6:00 am79 °FPassing clouds.7 mph74%29.95 "HgN/A
5:00 am81 °FPassing clouds.10 mph70%29.95 "HgN/A
4:00 am81 °FPassing clouds.8 mph70%29.95 "HgN/A
3:00 am82 °FPassing clouds.18 mph70%29.92 "HgN/A
2:00 am82 °FPassing clouds.20 mph70%29.95 "HgN/A
1:00 am84 °FPassing clouds.20 mph70%29.95 "HgN/A
12:00 am82 °FPassing clouds.21 mph74%29.98 "HgN/A
11:00 pm
Thu, May 25
84 °FPassing clouds.20 mph70%29.98 "HgN/A
10:00 pm84 °FPassing clouds.21 mph70%29.98 "HgN/A
9:00 pm84 °FPassing clouds.20 mph70%29.95 "HgN/A
8:00 pm84 °FPassing clouds.18 mph70%29.95 "HgN/A
7:00 pm84 °FPassing clouds.20 mph70%29.92 "HgN/A
6:00 pm86 °FPassing clouds.21 mph66%29.89 "HgN/A
5:00 pm86 °FPassing clouds.22 mph70%29.89 "HgN/A
4:00 pm88 °FPassing clouds.25 mph70%29.86 "HgN/A
3:00 pm90 °FPassing clouds.26 mph63%30.01 "HgN/A
2:00 pm90 °FPassing clouds.24 mph63%29.89 "HgN/A
Weather by CustomWeather, © 2017

See weather overviewHow to use our weather pages